Find Kosmos-1971

NORAD ID: 19502 Int'l Des: 1988-085 Owner: UNKS Country: SU Constellation: GLONASS operational
MEOCIRCULAR

Live-Position

3D-Globus wird geladen...

Über Kosmos-1971

Beschreibung wird geladen...

Nächste Überflüge

Passes for default location (London). Set your location on the main map for personalized predictions.

Höhenverlauf

Loading altitude history...

Zweizeiliger Elementsatz

1 19502U 88085B 26126.02987916 -.00000031 00000-0 00000+0 0 9999
2 19502 65.2603 315.8308 0023064 15.6225 162.8567 2.13101829278453
Epoch: 6. Mai 2026 • Age: 94 hours

Aktueller Status

Höhe 19112.1 km
Geschwindigkeit 3.96 km/s
Subsatellitenpunkt -38.18°S, 79.28°E
Startdatum 16. Sept. 1988
Alter 37.6 years
Typ other

Technische Details

Klassifizierung Payload
Masse 1300.00 kg
Trockenmasse 1200.00 kg
Gesamtmasse 1300.00 kg
Länge 4.00 m
Durchmesser 1.50 m
Spannweite 7.80 m
Form Cyl + Ant + 2 Pan
Hersteller OAZ
Bus-Typ Uragan
Phasenstatus In Orbit
Besitzer/Staat UNKS/SU

Most Searched